{"data":{"norad_id":53500,"intl_designator":"2022-099AM","name":"STARLINK-4455","alt_names":[],"object_type":"PAYLOAD","status":"ACTIVE","operator":null,"country":"US","launch_date":"2022-08-12","launch_site_code":"AFWTR","launch_vehicle":null,"mission":null,"orbit_class":"UNKNOWN","rcs_meters":null,"size_class":null,"mass_kg":null,"dimensions":null,"purposes":["comms"],"wikipedia_slug":null,"has_3d_model":false,"image_url":null,"decayed_at":null,"tle_current":{"epoch":"2026-09-02T15:02:34.484928Z","epoch_age_seconds":1623274,"freshness":"OLD","line1":"1 53500U 22099AM  26245.62678802  .06859854  26598-5  34831-3 0  9995","line2":"2 53500  97.5770  19.7496 0010362 278.4959  81.5166 16.41841551223574","mean_motion":16.41841551,"eccentricity":0.0010362,"inclination_deg":97.577,"raan_deg":19.7496,"arg_perigee_deg":278.4959,"mean_anomaly_deg":81.5166,"bstar":0.00034831,"rev_number":22357,"period_min":87.706392807694,"perigee_km":154.13254711887,"apogee_km":167.68406461075,"semimajor_km":6539.0453058648,"source":"CELESTRAK","updated_at":"2026-09-03T09:07:09.941423Z"}}}